| time (UTC) | temp F | wind direction | speed knots | gust knots | rain 1hr in | rain 24hr in | rain mn in | humidity % | barometer mb |
| 20260510045544 | 66 | 211 | 0.0 | 0.9 | 0.00 | 0.00 | 0.00 | 1 | 1011.5 |
| 20260510045042 | 66 | 211 | 0.0 | 2.6 | 0.00 | 0.00 | 0.00 | 1 | 1011.6 |
| 20260510044544 | 66 | 211 | 0.9 | 2.6 | 0.00 | 0.00 | 0.00 | 1 | 1011.7 |
| 20260510044042 | 65 | 211 | 0.9 | 2.6 | 0.00 | 0.00 | 0.00 | 1 | 1011.7 |
| 20260510043538 | 65 | 211 | 0.9 | 2.6 | 0.00 | 0.00 | 0.00 | 1 | 1011.6 |
| 20260510043036 | 65 | 211 | 0.9 | 3.5 | 0.00 | 0.00 | 0.00 | 1 | 1011.7 |
| 20260510042535 | 65 | 209 | 0.9 | 2.6 | 0.00 | 0.00 | 0.00 | 1 | 1011.5 |
| 20260510042034 | 65 | 210 | 0.9 | 2.6 | 0.00 | 0.00 | 0.00 | 1 | 1011.5 |
| 20260510041532 | 65 | 131 | 0.0 | 0.0 | 0.00 | 0.00 | 0.00 | 1 | 1011.5 |
| 20260510041030 | 64 | 131 | 0.0 | 0.0 | 0.00 | 0.00 | 0.00 | 1 | 1011.5 |
| 20260510040529 | 64 | 131 | 0.0 | 0.0 | 0.00 | 0.00 | 0.00 | 1 | 1011.5 |
| 20260510040029 | 64 | 131 | 0.0 | 0.0 | 0.00 | 0.00 | 0.00 | 1 | 1011.4 |
| 20260510035527 | 64 | 131 | 0.0 | 0.0 | 0.00 | 0.00 | 0.00 | 1 | 1011.5 |
| 20260510035027 | 64 | 130 | 0.0 | 0.0 | 0.00 | 0.00 | 0.00 | 1 | 1011.5 |
| 20260510034523 | 64 | 130 | 0.0 | 0.0 | 0.00 | 0.00 | 0.00 | 1 | 1011.4 |
| 20260510034022 | 64 | 130 | 0.0 | 0.0 | 0.00 | 0.00 | 0.00 | 1 | 1011.4 |
| 20260510033520 | 64 | 130 | 0.0 | 0.0 | 0.00 | 0.00 | 0.00 | 1 | 1011.4 |
| 20260510033019 | 64 | 130 | 0.0 | 0.0 | 0.00 | 0.00 | 0.00 | 1 | 1011.4 |
| 20260510032517 | 64 | 130 | 0.0 | 0.0 | 0.00 | 0.00 | 0.00 | 1 | 1011.4 |
| 20260510032016 | 64 | 130 | 0.0 | 0.0 | 0.00 | 0.00 | 0.00 | 1 | 1011.3 |
| 20260510031532 | 64 | 130 | 0.0 | 0.0 | 0.00 | 0.00 | 0.00 | 1 | 1011.4 |
| 20260510031012 | 64 | 130 | 0.0 | 0.0 | 0.00 | 0.00 | 0.00 | 1 | 1011.3 |
| 20260510030511 | 64 | 130 | 0.0 | 0.0 | 0.00 | 0.00 | 0.00 | 1 | 1011.2 |
| 20260510030012 | 64 | 130 | 0.0 | 0.0 | 0.00 | 0.00 | 0.00 | 1 | 1011.3 |
| 20260510025509 | 64 | 130 | 0.0 | 0.0 | 0.00 | 0.00 | 0.00 | 1 | 1011.2 |
| 20260510025007 | 64 | 130 | 0.0 | 0.0 | 0.00 | 0.00 | 0.00 | 1 | 1011.2 |
| 20260510024506 | 64 | 130 | 0.0 | 0.0 | 0.00 | 0.00 | 0.00 | 1 | 1011.1 |
| 20260510024004 | 64 | 130 | 0.0 | 0.0 | 0.00 | 0.00 | 0.00 | 1 | 1011.1 |
| 20260510023502 | 64 | 130 | 0.0 | 0.0 | 0.00 | 0.00 | 0.00 | 1 | 1011.0 |
| 20260510023001 | 64 | 130 | 0.0 | 0.0 | 0.00 | 0.00 | 0.00 | 1 | 1011.1 |
| 20260510022601 | 64 | 130 | 0.0 | 0.0 | 0.00 | 0.00 | 0.00 | 1 | 1011.0 |
| 20260510022058 | 64 | 130 | 0.0 | 0.0 | 0.00 | 0.00 | 0.00 | 1 | 1010.9 |
| 20260510021557 | 65 | 130 | 0.0 | 0.0 | 0.00 | 0.00 | 0.00 | 1 | 1010.9 |
| 20260510021057 | 65 | 130 | 0.0 | 0.0 | 0.00 | 0.00 | 0.00 | 4 | 1010.8 |
| 20260510020554 | 65 | 130 | 0.0 | 0.0 | 0.00 | 0.00 | 0.00 | 8 | 1010.7 |
| 20260510020053 | 65 | 130 | 0.0 | 0.0 | 0.00 | 0.00 | 0.00 | 10 | 1010.7 |
| 20260510015552 | 65 | 130 | 0.0 | 0.0 | 0.00 | 0.00 | 0.00 | 13 | 1010.5 |
| 20260510015049 | 65 | 130 | 0.0 | 0.0 | 0.00 | 0.00 | 0.00 | 15 | 1010.4 |
| 20260510014548 | 66 | 130 | 0.0 | 0.0 | 0.00 | 0.00 | 0.00 | 18 | 1010.4 |
| 20260510014048 | 66 | 130 | 0.0 | 0.0 | 0.00 | 0.00 | 0.00 | 20 | 1010.3 |
| 20260510013544 | 66 | 130 | 0.0 | 0.0 | 0.00 | 0.00 | 0.00 | 23 | 1010.2 |
| 20260510013044 | 67 | 130 | 0.0 | 0.0 | 0.00 | 0.00 | 0.00 | 26 | 1010.3 |
| 20260510012542 | 67 | 130 | 0.0 | 0.0 | 0.00 | 0.00 | 0.00 | 28 | 1010.3 |
| 20260510012041 | 67 | 130 | 0.0 | 0.0 | 0.00 | 0.00 | 0.00 | 30 | 1010.2 |
| 20260510011551 | 67 | 130 | 0.0 | 0.0 | 0.00 | 0.00 | 0.00 | 32 | 1010.1 |
| 20260510011037 | 68 | 130 | 0.0 | 0.0 | 0.00 | 0.00 | 0.00 | 34 | 1010.1 |
| 20260510010536 | 68 | 130 | 0.0 | 0.0 | 0.00 | 0.00 | 0.00 | 36 | 1010.0 |
| 20260510010036 | 68 | 130 | 0.0 | 0.0 | 0.00 | 0.00 | 0.00 | 39 | 1010.0 |
| 20260510005534 | 69 | 130 | 0.0 | 0.0 | 0.00 | 0.00 | 0.00 | 41 | 1010.0 |
| 20260510005032 | 69 | 130 | 0.0 | 0.0 | 0.00 | 0.00 | 0.00 | 43 | 1009.9 |
| 20260510004531 | 69 | 130 | 0.0 | 0.0 | 0.00 | 0.00 | 0.00 | 46 | 1009.9 |
| 20260510004028 | 70 | 130 | 0.0 | 0.0 | 0.00 | 0.00 | 0.00 | 47 | 1009.8 |
| 20260510003527 | 70 | 130 | 0.0 | 0.0 | 0.00 | 0.00 | 0.00 | 49 | 1009.7 |
| 20260510003052 | 70 | 130 | 0.0 | 0.0 | 0.00 | 0.00 | 0.00 | 49 | 1009.7 |
| 20260510002527 | 71 | 130 | 0.0 | 0.0 | 0.00 | 0.00 | 0.00 | 50 | 1009.7 |
| 20260510002022 | 71 | 130 | 0.0 | 0.0 | 0.00 | 0.00 | 0.00 | 51 | 1009.6 |
| 20260510001523 | 71 | 130 | 0.0 | 0.0 | 0.00 | 0.00 | 0.00 | 51 | 1009.5 |
| 20260510001020 | 72 | 130 | 0.0 | 0.0 | 0.00 | 0.00 | 0.00 | 52 | 1009.5 |
| 20260510000519 | 72 | 130 | 0.0 | 0.0 | 0.00 | 0.00 | 0.00 | 52 | 1009.4 |
| 20260510000017 | 72 | 130 | 0.0 | 0.0 | 0.00 | 0.00 | 0.00 | 52 | 1009.3 |
| 20260509235515 | 72 | 130 | 0.0 | 0.0 | 0.00 | 0.00 | 0.00 | 52 | 1009.3 |
| 20260509235014 | 73 | 130 | 0.0 | 0.0 | 0.00 | 0.00 | 0.00 | 52 | 1009.2 |
| 20260509234522 | 73 | 130 | 0.0 | 0.0 | 0.00 | 0.00 | 0.00 | 52 | 1009.1 |
| 20260509234010 | 73 | 130 | 0.0 | 0.0 | 0.00 | 0.00 | 0.00 | 52 | 1009.1 |
| 20260509233511 | 73 | 130 | 0.0 | 0.0 | 0.00 | 0.00 | 0.00 | 52 | 1009.2 |
| 20260509233012 | 73 | 130 | 0.0 | 0.0 | 0.00 | 0.00 | 0.00 | 52 | 1009.2 |
| 20260509232507 | 73 | 130 | 0.0 | 0.0 | 0.00 | 0.00 | 0.00 | 52 | 1009.2 |
| 20260509232006 | 73 | 130 | 0.0 | 0.0 | 0.00 | 0.00 | 0.00 | 51 | 1009.2 |
| 20260509231504 | 74 | 129 | 0.0 | 0.0 | 0.00 | 0.00 | 0.00 | 51 | 1009.2 |
| 20260509231002 | 74 | 129 | 0.0 | 0.0 | 0.00 | 0.00 | 0.00 | 52 | 1009.1 |
| 20260509230601 | 74 | 129 | 0.0 | 0.0 | 0.00 | 0.00 | 0.00 | 51 | 1009.1 |
| 20260509230109 | 74 | 129 | 0.0 | 0.0 | 0.00 | 0.00 | 0.00 | 51 | 1009.1 |
| 20260509225558 | 74 | 129 | 0.0 | 0.0 | 0.00 | 0.00 | 0.00 | 51 | 1009.2 |
| 20260509225056 | 74 | 129 | 0.0 | 2.6 | 0.00 | 0.00 | 0.00 | 51 | 1009.0 |
| 20260509224555 | 74 | 129 | 0.0 | 2.6 | 0.00 | 0.00 | 0.00 | 51 | 1008.9 |
| 20260509224054 | 74 | 158 | 0.0 | 1.7 | 0.00 | 0.00 | 0.00 | 50 | 1009.0 |
| 20260509223552 | 74 | 213 | 0.0 | 1.7 | 0.00 | 0.00 | 0.00 | 50 | 1009.0 |
| 20260509223051 | 74 | 213 | 0.0 | 1.7 | 0.00 | 0.00 | 0.00 | 50 | 1009.0 |
| 20260509222549 | 74 | 213 | 0.0 | 0.0 | 0.00 | 0.00 | 0.00 | 50 | 1009.0 |
| 20260509222047 | 74 | 213 | 0.0 | 0.0 | 0.00 | 0.00 | 0.00 | 49 | 1009.0 |
| 20260509221546 | 75 | 213 | 0.0 | 2.6 | 0.00 | 0.00 | 0.00 | 49 | 1009.1 |
| 20260509221045 | 75 | 213 | 0.0 | 2.6 | 0.00 | 0.00 | 0.00 | 48 | 1009.0 |
| 20260509220543 | 75 | 213 | 0.0 | 2.6 | 0.00 | 0.00 | 0.00 | 49 | 1009.0 |
| 20260509220042 | 74 | 194 | 0.9 | 3.5 | 0.00 | 0.00 | 0.00 | 50 | 1009.0 |
| 20260509215543 | 74 | 196 | 0.0 | 3.5 | 0.00 | 0.00 | 0.00 | 50 | 1008.9 |
| 20260509215040 | 74 | 161 | 0.0 | 2.6 | 0.00 | 0.00 | 0.00 | 51 | 1008.9 |
| 20260509214537 | 74 | 115 | 0.0 | 2.6 | 0.00 | 0.00 | 0.00 | 51 | 1008.8 |
| 20260509214039 | 74 | 329 | 0.0 | 1.7 | 0.00 | 0.00 | 0.00 | 52 | 1008.7 |
| 20260509213534 | 74 | 329 | 0.0 | 2.6 | 0.00 | 0.00 | 0.00 | 52 | 1008.8 |
| 20260509213035 | 74 | 329 | 0.0 | 2.6 | 0.00 | 0.00 | 0.00 | 51 | 1008.8 |
| 20260509212535 | 74 | 277 | 0.0 | 1.7 | 0.00 | 0.00 | 0.00 | 50 | 1008.8 |
| 20260509212032 | 74 | 277 | 0.0 | 4.3 | 0.00 | 0.00 | 0.00 | 50 | 1008.8 |
| 20260509211528 | 75 | 277 | 0.9 | 4.3 | 0.00 | 0.00 | 0.00 | 49 | 1008.9 |
| 20260509211027 | 75 | 209 | 0.0 | 3.5 | 0.00 | 0.00 | 0.00 | 50 | 1008.8 |
| 20260509210526 | 75 | 209 | 0.9 | 3.5 | 0.00 | 0.00 | 0.00 | 49 | 1008.8 |
| 20260509210025 | 75 | 209 | 0.9 | 3.5 | 0.00 | 0.00 | 0.00 | 49 | 1008.9 |
| 20260509205522 | 75 | 72 | 0.9 | 3.5 | 0.00 | 0.00 | 0.00 | 49 | 1008.9 |
| 20260509205021 | 75 | 172 | 1.7 | 3.5 | 0.00 | 0.00 | 0.00 | 49 | 1008.7 |
| 20260509204519 | 76 | 234 | 0.9 | 5.2 | 0.00 | 0.00 | 0.00 | 49 | 1008.6 |
| 20260509204018 | 76 | 144 | 1.7 | 7.0 | 0.00 | 0.00 | 0.00 | 48 | 1008.6 |
| 20260509203516 | 76 | 192 | 1.7 | 5.2 | 0.00 | 0.00 | 0.00 | 48 | 1008.5 |
| 20260509203020 | 76 | 195 | 1.7 | 6.1 | 0.00 | 0.00 | 0.00 | 49 | 1008.5 |
| 20260509202513 | 76 | 163 | 0.9 | 8.7 | 0.00 | 0.00 | 0.00 | 48 | 1008.6 |
| 20260509202012 | 77 | 201 | 1.7 | 8.7 | 0.00 | 0.00 | 0.00 | 48 | 1008.6 |
| 20260509201511 | 77 | 221 | 0.9 | 2.6 | 0.00 | 0.00 | 0.00 | 47 | 1008.8 |
| 20260509201009 | 77 | 128 | 0.9 | 5.2 | 0.00 | 0.00 | 0.00 | 46 | 1008.9 |
| 20260509200508 | 78 | 145 | 0.9 | 5.2 | 0.00 | 0.00 | 0.00 | 45 | 1009.0 |
| 20260509200008 | 78 | 187 | 1.7 | 3.5 | 0.00 | 0.00 | 0.00 | 45 | 1009.0 |
| 20260509195508 | 78 | 200 | 0.9 | 8.7 | 0.00 | 0.00 | 0.00 | 47 | 1009.0 |
| 20260509195003 | 77 | 167 | 1.7 | 8.7 | 0.00 | 0.00 | 0.00 | 46 | 1009.1 |
| 20260509194509 | 77 | 178 | 0.9 | 6.1 | 0.00 | 0.00 | 0.00 | 47 | 1009.2 |
| 20260509194100 | 77 | 163 | 0.9 | 3.5 | 0.00 | 0.00 | 0.00 | 47 | 1009.4 |
| 20260509193559 | 77 | 229 | 0.9 | 2.6 | 0.00 | 0.00 | 0.00 | 45 | 1009.4 |
| 20260509193057 | 77 | 229 | 0.9 | 3.5 | 0.00 | 0.00 | 0.00 | 47 | 1009.4 |
| 20260509192556 | 77 | 230 | 0.9 | 5.2 | 0.00 | 0.00 | 0.00 | 47 | 1009.4 |
| 20260509192055 | 76 | 165 | 0.9 | 5.2 | 0.00 | 0.00 | 0.00 | 46 | 1009.5 |
| 20260509191554 | 76 | 190 | 0.9 | 2.6 | 0.00 | 0.00 | 0.00 | 46 | 1009.5 |
| 20260509191054 | 77 | 146 | 0.9 | 3.5 | 0.00 | 0.00 | 0.00 | 45 | 1009.4 |
| 20260509190554 | 77 | 199 | 1.7 | 3.5 | 0.00 | 0.00 | 0.00 | 45 | 1009.5 |
| 20260509190049 | 78 | 249 | 0.9 | 3.5 | 0.00 | 0.00 | 0.00 | 42 | 1009.6 |
| 20260509185548 | 79 | 248 | 0.9 | 3.5 | 0.00 | 0.00 | 0.00 | 42 | 1009.7 |
| 20260509185045 | 80 | 252 | 0.9 | 5.2 | 0.00 | 0.00 | 0.00 | 42 | 1009.6 |
| 20260509184545 | 79 | 260 | 0.9 | 5.2 | 0.00 | 0.00 | 0.00 | 45 | 1009.8 |
| 20260509184043 | 79 | 225 | 1.7 | 4.3 | 0.00 | 0.00 | 0.00 | 44 | 1009.7 |
| 20260509183545 | 78 | 219 | 0.9 | 4.3 | 0.00 | 0.00 | 0.00 | 43 | 1009.9 |
| 20260509183057 | 78 | 207 | 0.9 | 2.6 | 0.00 | 0.00 | 0.00 | 46 | 1009.9 |
| 20260509182538 | 77 | 207 | 0.9 | 3.5 | 0.00 | 0.00 | 0.00 | 46 | 1010.0 |
| 20260509182041 | 77 | 207 | 0.9 | 4.3 | 0.00 | 0.00 | 0.00 | 44 | 1010.1 |
| 20260509181544 | 78 | 227 | 1.7 | 4.3 | 0.00 | 0.00 | 0.00 | 44 | 1010.1 |
| 20260509181034 | 78 | 118 | 0.9 | 4.3 | 0.00 | 0.00 | 0.00 | 44 | 1010.3 |
| 20260509180532 | 78 | 182 | 1.7 | 4.3 | 0.00 | 0.00 | 0.00 | 43 | 1010.2 |
| 20260509180034 | 78 | 224 | 0.9 | 5.2 | 0.00 | 0.00 | 0.00 | 44 | 1010.1 |
| 20260509175531 | 78 | 155 | 0.9 | 7.0 | 0.00 | 0.00 | 0.00 | 45 | 1010.1 |
| 20260509175029 | 78 | 157 | 1.7 | 7.0 | 0.00 | 0.00 | 0.00 | 43 | 1010.4 |
| 20260509174526 | 78 | 313 | 0.9 | 3.5 | 0.00 | 0.00 | 0.00 | 46 | 1010.5 |
| 20260509174025 | 78 | 286 | 0.9 | 4.3 | 0.00 | 0.00 | 0.00 | 44 | 1010.5 |
| 20260509173524 | 78 | 302 | 1.7 | 7.0 | 0.00 | 0.00 | 0.00 | 46 | 1010.3 |
| 20260509173025 | 78 | 150 | 1.7 | 7.0 | 0.00 | 0.00 | 0.00 | 45 | 1010.5 |
| 20260509172521 | 78 | 242 | 0.9 | 3.5 | 0.00 | 0.00 | 0.00 | 46 | 1010.4 |
| 20260509172020 | 78 | 135 | 0.9 | 3.5 | 0.00 | 0.00 | 0.00 | 44 | 1010.4 |
| 20260509171520 | 78 | 136 | 1.7 | 4.3 | 0.00 | 0.00 | 0.00 | 46 | 1010.5 |
| 20260509171016 | 77 | 238 | 0.9 | 5.2 | 0.00 | 0.00 | 0.00 | 47 | 1010.6 |
| 20260509170515 | 77 | 154 | 0.0 | 6.1 | 0.00 | 0.00 | 0.00 | 47 | 1010.6 |
| 20260509170014 | 76 | 220 | 0.9 | 6.1 | 0.00 | 0.00 | 0.00 | 46 | 1010.9 |
| 20260509165511 | 76 | 178 | 1.7 | 4.3 | 0.00 | 0.00 | 0.00 | 46 | 1010.8 |
| 20260509165010 | 76 | 257 | 1.7 | 4.3 | 0.00 | 0.00 | 0.00 | 48 | 1010.9 |
| 20260509164511 | 75 | 168 | 0.0 | 7.0 | 0.00 | 0.00 | 0.00 | 49 | 1011.0 |
| 20260509164007 | 75 | 207 | 2.6 | 7.8 | 0.00 | 0.00 | 0.00 | 48 | 1011.3 |
| 20260509163508 | 75 | 182 | 0.9 | 7.8 | 0.00 | 0.00 | 0.00 | 48 | 1011.1 |
| 20260509163004 | 75 | 84 | 1.7 | 7.0 | 0.00 | 0.00 | 0.00 | 47 | 1011.0 |
| 20260509162503 | 75 | 236 | 0.9 | 4.3 | 0.00 | 0.00 | 0.00 | 49 | 1011.0 |
| 20260509162102 | 75 | 239 | 0.9 | 4.3 | 0.00 | 0.00 | 0.00 | 49 | 1011.0 |
| 20260509161600 | 75 | 208 | 0.9 | 3.5 | 0.00 | 0.00 | 0.00 | 50 | 1010.9 |
| 20260509161058 | 74 | 206 | 0.9 | 4.3 | 0.00 | 0.00 | 0.00 | 49 | 1011.2 |
| 20260509160557 | 74 | 213 | 0.9 | 7.8 | 0.00 | 0.00 | 0.00 | 50 | 1011.3 |
| 20260509160058 | 73 | 232 | 1.7 | 7.8 | 0.00 | 0.00 | 0.00 | 50 | 1011.4 |
| 20260509155554 | 73 | 227 | 1.7 | 5.2 | 0.00 | 0.00 | 0.00 | 50 | 1011.4 |
| 20260509155053 | 73 | 44 | 1.7 | 6.1 | 0.00 | 0.00 | 0.00 | 50 | 1011.5 |
| 20260509154555 | 73 | 178 | 1.7 | 5.2 | 0.00 | 0.00 | 0.00 | 50 | 1011.7 |
| 20260509154050 | 73 | 214 | 0.9 | 4.3 | 0.00 | 0.00 | 0.00 | 50 | 1012.1 |
| 20260509153548 | 73 | 202 | 0.0 | 6.1 | 0.00 | 0.00 | 0.00 | 51 | 1012.0 |
| 20260509153047 | 73 | 219 | 1.7 | 6.1 | 0.00 | 0.00 | 0.00 | 50 | 1011.8 |
| 20260509152549 | 73 | 197 | 1.7 | 6.1 | 0.00 | 0.00 | 0.00 | 50 | 1011.9 |
| 20260509152044 | 73 | 154 | 1.7 | 4.3 | 0.00 | 0.00 | 0.00 | 50 | 1011.9 |
| 20260509151544 | 73 | 105 | 1.7 | 4.3 | 0.00 | 0.00 | 0.00 | 50 | 1012.2 |
| 20260509151041 | 72 | 142 | 1.7 | 5.2 | 0.00 | 0.00 | 0.00 | 49 | 1012.3 |
| 20260509150540 | 72 | 189 | 0.9 | 4.3 | 0.00 | 0.00 | 0.00 | 49 | 1012.2 |
| 20260509150039 | 71 | 200 | 0.9 | 6.1 | 0.00 | 0.00 | 0.00 | 48 | 1012.3 |
| 20260509145537 | 71 | 227 | 1.7 | 7.8 | 0.00 | 0.00 | 0.00 | 47 | 1012.4 |
| 20260509145039 | 70 | 263 | 1.7 | 7.8 | 0.00 | 0.00 | 0.00 | 48 | 1012.3 |
| 20260509144538 | 70 | 234 | 0.0 | 5.2 | 0.00 | 0.00 | 0.00 | 44 | 1012.4 |
| 20260509144034 | 70 | 223 | 1.7 | 7.0 | 0.00 | 0.00 | 0.00 | 42 | 1012.7 |
| 20260509143531 | 69 | 74 | 1.7 | 7.0 | 0.00 | 0.00 | 0.00 | 43 | 1012.8 |
| 20260509143030 | 69 | 224 | 1.7 | 3.5 | 0.00 | 0.00 | 0.00 | 39 | 1013.1 |
| 20260509142527 | 69 | 221 | 0.9 | 3.5 | 0.00 | 0.00 | 0.00 | 41 | 1013.2 |
| 20260509142026 | 68 | 190 | 0.9 | 4.3 | 0.00 | 0.00 | 0.00 | 36 | 1013.0 |
| 20260509141525 | 68 | 130 | 1.7 | 5.2 | 0.00 | 0.00 | 0.00 | 33 | 1013.1 |
| 20260509141024 | 67 | 83 | 0.9 | 4.3 | 0.00 | 0.00 | 0.00 | 30 | 1013.1 |
| 20260509140522 | 67 | 209 | 1.7 | 4.3 | 0.00 | 0.00 | 0.00 | 28 | 1013.1 |
| 20260509140020 | 67 | 193 | 0.9 | 4.3 | 0.00 | 0.00 | 0.00 | 17 | 1012.9 |
| 20260509135519 | 66 | 169 | 0.9 | 6.1 | 0.00 | 0.00 | 0.00 | 12 | 1013.0 |
| 20260509135018 | 65 | 224 | 0.9 | 6.1 | 0.00 | 0.00 | 0.00 | 9 | 1013.1 |
| 20260509134516 | 65 | 211 | 1.7 | 4.3 | 0.00 | 0.00 | 0.00 | 1 | 1013.1 |
| 20260509134014 | 64 | 143 | 0.9 | 4.3 | 0.00 | 0.00 | 0.00 | 1 | 1013.3 |
| 20260509133513 | 64 | 171 | 1.7 | 4.3 | 0.00 | 0.00 | 0.00 | 1 | 1013.5 |
| 20260509133012 | 63 | 209 | 0.9 | 7.0 | 0.00 | 0.00 | 0.00 | 1 | 1013.5 |
| 20260509132511 | 63 | 180 | 0.9 | 3.5 | 0.00 | 0.00 | 0.00 | 1 | 1013.7 |
| 20260509132010 | 63 | 178 | 0.9 | 6.1 | 0.00 | 0.00 | 0.00 | 1 | 1013.7 |
| 20260509131508 | 63 | 165 | 1.7 | 7.8 | 0.00 | 0.00 | 0.00 | 1 | 1013.6 |
| 20260509131009 | 62 | 162 | 0.0 | 7.8 | 0.00 | 0.00 | 0.00 | 1 | 1013.5 |
| 20260509130505 | 62 | 185 | 0.9 | 2.6 | 0.00 | 0.00 | 0.00 | 1 | 1013.5 |
| 20260509130007 | 61 | 181 | 0.9 | 2.6 | 0.00 | 0.00 | 0.00 | 1 | 1013.5 |
| 20260509125504 | 61 | 170 | 0.0 | 2.6 | 0.00 | 0.00 | 0.00 | 1 | 1013.4 |
| 20260509125059 | 60 | 155 | 0.9 | 5.2 | 0.00 | 0.00 | 0.00 | 1 | 1013.4 |
| 20260509124602 | 60 | 131 | 0.9 | 5.2 | 0.00 | 0.00 | 0.00 | 1 | 1013.4 |
| 20260509124057 | 59 | 171 | 0.0 | 1.7 | 0.00 | 0.00 | 0.00 | 1 | 1013.5 |
| 20260509123555 | 59 | 171 | 0.0 | 3.5 | 0.00 | 0.00 | 0.00 | 1 | 1013.5 |
| 20260509123055 | 58 | 44 | 0.9 | 5.2 | 0.00 | 0.00 | 0.00 | 1 | 1013.5 |
| 20260509122553 | 57 | 148 | 0.0 | 2.6 | 0.00 | 0.00 | 0.00 | 1 | 1013.5 |
| 20260509122050 | 57 | 148 | 0.0 | 2.6 | 0.00 | 0.00 | 0.00 | 1 | 1013.5 |
| 20260509121550 | 56 | 128 | 0.0 | 1.7 | 0.00 | 0.00 | 0.00 | 1 | 1013.6 |
| 20260509121050 | 56 | 128 | 0.0 | 1.7 | 0.00 | 0.00 | 0.00 | 1 | 1013.7 |
| 20260509120547 | 55 | 113 | 0.0 | 1.7 | 0.00 | 0.00 | 0.00 | 1 | 1013.8 |
| 20260509120052 | 55 | 116 | 0.9 | 2.6 | 0.00 | 0.00 | 0.00 | 1 | 1013.7 |
| 20260509115543 | 54 | 125 | 0.9 | 2.6 | 0.00 | 0.00 | 0.00 | 1 | 1013.5 |
| 20260509115046 | 54 | 135 | 0.9 | 2.6 | 0.00 | 0.00 | 0.00 | 1 | 1013.5 |
| 20260509114540 | 53 | 121 | 0.9 | 2.6 | 0.00 | 0.00 | 0.00 | 1 | 1013.4 |
| 20260509114039 | 53 | 117 | 0.9 | 2.6 | 0.00 | 0.00 | 0.00 | 1 | 1013.4 |
| 20260509113537 | 52 | 144 | 0.0 | 1.7 | 0.00 | 0.00 | 0.00 | 1 | 1013.3 |
| 20260509113037 | 52 | 144 | 0.0 | 1.7 | 0.00 | 0.00 | 0.00 | 1 | 1013.4 |
| 20260509112535 | 52 | 144 | 0.0 | 1.7 | 0.00 | 0.00 | 0.00 | 1 | 1013.5 |
| 20260509112033 | 51 | 144 | 0.0 | 0.0 | 0.00 | 0.00 | 0.00 | 1 | 1013.4 |
| 20260509111532 | 51 | 144 | 0.0 | 0.0 | 0.00 | 0.00 | 0.00 | 1 | 1013.3 |
| 20260509111031 | 51 | 144 | 0.0 | 0.0 | 0.00 | 0.00 | 0.00 | 1 | 1013.3 |
| 20260509110528 | 51 | 144 | 0.0 | 0.0 | 0.00 | 0.00 | 0.00 | 1 | 1013.3 |
| 20260509110030 | 51 | 144 | 0.0 | 0.0 | 0.00 | 0.00 | 0.00 | 1 | 1013.4 |
| 20260509105528 | 51 | 144 | 0.0 | 0.0 | 0.00 | 0.00 | 0.00 | 1 | 1013.3 |
| 20260509105026 | 51 | 144 | 0.0 | 0.0 | 0.00 | 0.00 | 0.00 | 1 | 1013.4 |
| 20260509104534 | 51 | 144 | 0.0 | 0.0 | 0.00 | 0.00 | 0.00 | 1 | 1013.3 |
| 20260509104021 | 51 | 144 | 0.0 | 0.0 | 0.00 | 0.00 | 0.00 | 1 | 1013.4 |
| 20260509103519 | 51 | 144 | 0.0 | 0.0 | 0.00 | 0.00 | 0.00 | 1 | 1013.4 |
| 20260509103018 | 51 | 144 | 0.0 | 0.0 | 0.00 | 0.00 | 0.00 | 1 | 1013.4 |
| 20260509102516 | 51 | 144 | 0.0 | 0.0 | 0.00 | 0.00 | 0.00 | 1 | 1013.3 |
| 20260509102015 | 51 | 144 | 0.0 | 0.0 | 0.00 | 0.00 | 0.00 | 1 | 1013.3 |
| 20260509101515 | 51 | 144 | 0.0 | 0.0 | 0.00 | 0.00 | 0.00 | 1 | 1013.2 |
| 20260509101017 | 51 | 144 | 0.0 | 0.0 | 0.00 | 0.00 | 0.00 | 1 | 1013.3 |
| 20260509100511 | 51 | 144 | 0.0 | 0.0 | 0.00 | 0.00 | 0.00 | 1 | 1013.3 |
| 20260509100010 | 51 | 144 | 0.0 | 0.0 | 0.00 | 0.00 | 0.00 | 1 | 1013.3 |
| 20260509095508 | 51 | 144 | 0.0 | 0.0 | 0.00 | 0.00 | 0.00 | 1 | 1013.2 |
| 20260509095007 | 51 | 144 | 0.0 | 0.0 | 0.00 | 0.00 | 0.00 | 1 | 1013.2 |
| 20260509094504 | 52 | 144 | 0.0 | 0.0 | 0.00 | 0.00 | 0.00 | 1 | 1013.3 |
| 20260509094004 | 52 | 144 | 0.0 | 0.0 | 0.00 | 0.00 | 0.00 | 1 | 1013.3 |
| 20260509093503 | 52 | 144 | 0.0 | 0.0 | 0.00 | 0.00 | 0.00 | 1 | 1013.3 |
| 20260509092559 | 52 | 144 | 0.0 | 0.0 | 0.00 | 0.00 | 0.00 | 1 | 1013.3 |
| 20260509092059 | 52 | 144 | 0.0 | 0.0 | 0.00 | 0.00 | 0.00 | 1 | 1013.4 |
| 20260509091557 | 52 | 144 | 0.0 | 0.0 | 0.00 | 0.00 | 0.00 | 1 | 1013.5 |
| 20260509091055 | 53 | 144 | 0.0 | 0.0 | 0.00 | 0.00 | 0.00 | 1 | 1013.5 |
| 20260509090554 | 53 | 144 | 0.0 | 0.0 | 0.00 | 0.00 | 0.00 | 1 | 1013.4 |
| 20260509090052 | 53 | 144 | 0.0 | 0.0 | 0.00 | 0.00 | 0.00 | 1 | 1013.5 |
| 20260509085550 | 53 | 144 | 0.0 | 0.0 | 0.00 | 0.00 | 0.00 | 1 | 1013.3 |
| 20260509085050 | 53 | 144 | 0.0 | 0.9 | 0.00 | 0.00 | 0.00 | 1 | 1013.3 |
| 20260509084554 | 53 | 144 | 0.0 | 1.7 | 0.00 | 0.00 | 0.00 | 1 | 1013.2 |
| 20260509084046 | 53 | 144 | 0.0 | 1.7 | 0.00 | 0.00 | 0.00 | 1 | 1013.1 |
| 20260509083544 | 53 | 144 | 0.0 | 1.7 | 0.00 | 0.00 | 0.00 | 1 | 1013.2 |
| 20260509083042 | 53 | 144 | 0.0 | 1.7 | 0.00 | 0.00 | 0.00 | 1 | 1013.2 |
| 20260509082541 | 54 | 157 | 0.0 | 0.0 | 0.00 | 0.00 | 0.00 | 1 | 1013.3 |
| 20260509082043 | 54 | 157 | 0.0 | 0.0 | 0.00 | 0.00 | 0.00 | 1 | 1013.2 |
| 20260509081542 | 54 | 157 | 0.0 | 0.0 | 0.00 | 0.00 | 0.00 | 1 | 1013.1 |
| 20260509081036 | 54 | 157 | 0.0 | 0.0 | 0.00 | 0.00 | 0.00 | 1 | 1013.1 |
| 20260509080535 | 54 | 157 | 0.0 | 0.0 | 0.00 | 0.00 | 0.00 | 1 | 1013.2 |
| 20260509080048 | 54 | 157 | 0.0 | 0.0 | 0.00 | 0.00 | 0.00 | 1 | 1013.2 |
| 20260509075534 | 54 | 157 | 0.0 | 0.0 | 0.00 | 0.00 | 0.00 | 1 | 1013.3 |
| 20260509075033 | 55 | 157 | 0.0 | 0.0 | 0.00 | 0.00 | 0.00 | 1 | 1013.3 |
| 20260509074530 | 55 | 157 | 0.0 | 0.0 | 0.00 | 0.00 | 0.00 | 1 | 1013.4 |
| 20260509074028 | 55 | 157 | 0.0 | 0.0 | 0.00 | 0.00 | 0.00 | 1 | 1013.5 |
| 20260509073530 | 55 | 157 | 0.0 | 0.0 | 0.00 | 0.00 | 0.00 | 1 | 1013.5 |
| 20260509073028 | 55 | 157 | 0.0 | 0.0 | 0.00 | 0.00 | 0.00 | 1 | 1013.5 |
| 20260509072524 | 55 | 157 | 0.0 | 0.0 | 0.00 | 0.00 | 0.00 | 1 | 1013.4 |
| 20260509072022 | 55 | 157 | 0.0 | 0.0 | 0.00 | 0.00 | 0.00 | 1 | 1013.2 |
| 20260509071521 | 55 | 157 | 0.0 | 0.0 | 0.00 | 0.00 | 0.00 | 1 | 1013.3 |
| 20260509071020 | 55 | 157 | 0.0 | 0.0 | 0.00 | 0.00 | 0.00 | 1 | 1013.3 |
| 20260509070519 | 55 | 157 | 0.0 | 0.0 | 0.00 | 0.00 | 0.00 | 1 | 1013.5 |
| 20260509070017 | 55 | 157 | 0.0 | 1.7 | 0.00 | 0.00 | 0.00 | 1 | 1013.5 |
| 20260509065515 | 55 | 157 | 0.0 | 2.6 | 0.00 | 0.00 | 0.00 | 1 | 1013.5 |
| 20260509065014 | 55 | 157 | 0.0 | 2.6 | 0.00 | 0.00 | 0.00 | 1 | 1013.7 |
| 20260509064512 | 55 | 150 | 0.0 | 1.7 | 0.00 | 0.00 | 0.00 | 1 | 1013.9 |
| 20260509064013 | 55 | 153 | 0.0 | 0.0 | 0.00 | 0.00 | 0.00 | 1 | 1014.0 |
| 20260509063509 | 55 | 153 | 0.0 | 0.0 | 0.00 | 0.00 | 0.00 | 1 | 1014.1 |
| 20260509063012 | 55 | 153 | 0.0 | 1.7 | 0.00 | 0.00 | 0.00 | 1 | 1014.2 |
| 20260509062508 | 55 | 153 | 0.0 | 1.7 | 0.00 | 0.00 | 0.00 | 3 | 1014.3 |
| 20260509062005 | 55 | 153 | 0.9 | 2.6 | 0.00 | 0.00 | 0.00 | 9 | 1014.5 |
| 20260509061513 | 55 | 155 | 0.0 | 2.6 | 0.00 | 0.00 | 0.00 | 13 | 1014.6 |
| 20260509061005 | 55 | 155 | 0.0 | 1.7 | 0.00 | 0.00 | 0.00 | 17 | 1014.6 |
| 20260509060502 | 56 | 161 | 0.0 | 1.7 | 0.00 | 0.00 | 0.00 | 21 | 1014.6 |
| 20260509060001 | 56 | 161 | 0.9 | 2.6 | 0.00 | 0.00 | 0.00 | 25 | 1014.6 |
| 20260509055600 | 56 | 161 | 0.9 | 2.6 | 0.00 | 0.00 | 0.00 | 27 | 1014.6 |
| 20260509055103 | 56 | 157 | 0.0 | 1.7 | 0.00 | 0.00 | 0.00 | 31 | 1014.5 |
| 20260509054604 | 56 | 157 | 0.0 | 4.3 | 0.00 | 0.00 | 0.00 | 33 | 1014.5 |
| 20260509054101 | 56 | 157 | 0.0 | 4.3 | 0.00 | 0.00 | 0.00 | 36 | 1014.6 |
| 20260509053556 | 56 | 157 | 0.9 | 2.6 | 0.00 | 0.00 | 0.00 | 38 | 1014.6 |
| 20260509053103 | 56 | 155 | 0.0 | 2.6 | 0.00 | 0.00 | 0.00 | 40 | 1014.6 |
| 20260509052554 | 56 | 165 | 0.0 | 6.1 | 0.00 | 0.00 | 0.00 | 42 | 1014.3 |
| 20260509052054 | 56 | 165 | 0.9 | 6.1 | 0.00 | 0.00 | 0.00 | 44 | 1014.5 |
| 20260509051601 | 56 | 171 | 0.0 | 0.9 | 0.00 | 0.00 | 0.00 | 45 | 1014.4 |
| 20260509051053 | 56 | 171 | 0.0 | 3.5 | 0.00 | 0.00 | 0.00 | 47 | 1014.4 |
| 20260509050555 | 56 | 171 | 0.9 | 4.3 | 0.00 | 0.00 | 0.00 | 47 | 1014.3 |
| 20260509050054 | 56 | 164 | 0.0 | 1.7 | 0.00 | 0.00 | 0.00 | 49 | 1014.4 |